sat.trackr.live / text

‹ back to catalog

STARLINK-36605

NORAD 67604 · 2026-018R

PAYLOAD ACTIVE UNKNOWN

§ Identity

Operator
Country
US
Launch date
2026-01-29
Launch site
AFWTR
Launch vehicle
Mass (kg)
RCS (m²)

Purposes: comms

External: N2YO · Heavens-Above · Gunter

§ Orbital elements

Epoch: 2026-05-25T03:46:04.190016Z

Period
93.91 min
Inclination
97.2848°
Eccentricity
0.0000533
Mean motion
15.33444988 rev/d
Perigee alt
465.2 km
Apogee alt
465.9 km
Semi-major
6,843.7 km
B*
4.2322e-4
RAAN
210.2926°
Arg perigee
49.5176°
Mean anomaly
310.6113°
Rev number
1,905

§ Raw data

STARLINK-366051 67604U 26018R   26145.15699294  .00013613  00000+0  42322-3 0  99922 67604  97.2848 210.2926 0000533  49.5176 310.6113 15.33444988 19057

JSON: /api/v1/satellites/67604 · /tle

For live sub-satellite position, see the globe view (requires WebGL).

§ Visibility from observer

Set your observer location to see the next 7 days of passes ≥ 10°. The values pass through the URL so the page stays shareable.

No JS? Fill the form by hand. The geolocation button needs JavaScript.